STARLINK-36135, 66986

Orbit data source: Space-Track

STARLINK-36135, 66986 is a payload satellite owned by SpaceX/Seattle (US) in LEO that was launched on Mon, 08 Dec 2025 UTC via an FALCON 9 launch vehicle from the Air Force Eastern Test Range (AFETR). Payload-class satellites include a variety of spacecraft equipped with specific instruments for various scientific and technological missions. These include communications satellites like Starlink; space stations such as the ISS; scientific satellites like the Hubble; Earth observation satellites from companies like Planet Labs, Umbra, and HawkEye 360; GPS; miniature CubeSats for education and research; and military/defense satellites.

Loading next visibility...
Identifier
66986, 2025-288AD
Orbit
LEO
Country
Flag of USUS
Related business
Manufacturer
SpaceX/Seattle
Mission
Operational Commercial Communications
Bus & Motor
STARLINK V2MO, Unknown motor
Mass
575 kg wet, ~530 kg dry
Launch date (UTC)
2025-12-08 (5 months ago)
Launch vehicle
FALCON 9
Launch site
Air Force Eastern Test Range (AFETR)
Object type
Payload
Rocket body
Debris
Shape & HBR
Box + 2 Pan, 17.7 m
Radar Cross Section
36.964 m²

Expand to show TLE details & history
Last TLE update: 16 hours ago

TLE from 16 hours ago
0 STARLINK-36135
1 66986U 25288AD  26129.80454455  .00012142  00000-0  44989-3 0  9992
2 66986  43.0043  38.3449 0001622 266.0852  93.9814 15.27590969 24634
Epoch: 2026-05-09T19:18Z
TLE epoch observation values (Epoch: 2026-05-09T19:18:32.649Z)
Latitude
-0.00002°
Longitude
-118.90788°
Altitude
482.87 km
Speed
7.626 km/s
True Right ascension
02h 33m 22s
True Declination
0° 00' 00"
Sunlit
Object was in daylight at epoch
Visualization orbit readout
Latitude
Unknown
Longitude
Unknown
Altitude
Unknown
Speed
Unknown
Apparent Right ascension
Unknown
Apparent Declination
Unknown
Sunlit
N/A
Visualization observer readout
Local Sidereal Time
19:49:16
Azimuth
Unknown
Elevation
Unknown
Doppler factor
Unknown
Orbital elements
Apogee altitude
486.074 km
Perigee altitude
483.848 km
Semi-major axis
6,863.098 km
Eccentricity
0.00016
Inclination
43.0043°
RAAN
38.3449°
Arg. of periapsis
266.0852°
True anomaly
93.99994°
Mean anomaly
93.9814°
Eccentric anomaly
93.99067°
Mean motion
3.81736 °/min
Orbital period
94.31 mins
BSTAR
0.00044989
Loading maneuver chart data...
Computing Atmospheric mass density...
Loading historical data...
Loading historical data...
Loading historical data...
Loading historical data...
Loading historical data...
Loading historical data...
Loading historical data...

Documentation

Showing up to 5 results
|